[[{"header":{"parameterUnit":"m.s-1","parameterCategory":1,"la1":30.2991,"la2":30.254,"lo1":-89.0895,"lo2":-89.0444,"dy":0.0017,"dx":0.0017,"nx":28,"ny":28,"refTime":"2026-02-07T09:00:00:Z","depth":0,"parameterNumber":2,"parameterNumberName":"U-component_of_WINDS"},"data":[0,0,0,0,0,0,0,0,0,0,0,0,0,0,0,0,0,0,0,0,0,0,0,0,0,0,0,0,0,0,0,0,0,0,0,0,0,0,0,0,0,0,0,0,0,0,0,0,0,0,0,0,0,0,0,0,0,0,-1.6722,-1.6722,0,-1.672,-1.672,-1.672,-1.6688,-1.6687,-1.6686,-1.6685,-1.6685,-1.6686,-1.6687,0,0,0,0,0,0,0,0,0,0,0,0,0,-1.6697,-1.6698,-1.6722,-1.6722,-1.6722,-1.672,-1.672,-1.672,-1.6688,-1.6687,-1.6686,-1.6685,-1.6685,-1.6686,-1.6687,0,0,0,0,0,0,0,0,0,0,0,0,0,-1.6703,-1.6698,-1.6722,-1.6705,-1.6704,-1.672,-1.672,-1.672,-1.6688,-1.6687,-1.6686,-1.6684,-1.6685,-1.6686,-1.6687,-1.672,0,0,-1.6691,-1.6691,0,0,0,0,0,0,0,0,-1.6703,-1.6704,-1.6708,-1.6706,-1.6705,-1.6703,-1.6712,-1.672,-1.6688,-1.6694,-1.6685,-1.6684,-1.6692,-1.6693,-1.6695,-1.672,-1.672,-1.6691,-1.6691,-1.6692,-1.6692,0,0,0,0,0,0,0,-1.6702,-1.6704,-1.6721,-1.6708,-1.6706,-1.6698,-1.6698,-1.6713,-1.67,-1.6694,-1.6691,-1.6691,-1.6691,-1.6694,-1.6695,-1.672,-1.6691,-1.6692,-1.6692,-1.6693,-1.6772,-1.6773,0,0,0,0,0,0,-1.6704,-1.6704,-1.6721,-1.6721,-1.67,-1.67,-1.6699,-1.6705,-1.67,-1.6698,-1.6692,-1.669,-1.6693,-1.6694,-1.6695,-1.6734,-1.6692,-1.6693,-1.6694,-1.6771,-1.6772,-1.6774,0,0,0,0,0,0,-1.6704,-1.6706,-1.6721,-1.6712,-1.6713,-1.6702,-1.6708,-1.6705,-1.6708,-1.6699,-1.6697,-1.6698,-1.6692,-1.6693,-1.6714,-1.6734,-1.6694,-1.6695,-1.6769,-1.6771,-1.6773,-1.6812,0,0,0,0,0,0,-1.6703,-1.6706,-1.6718,-1.6712,-1.6714,-1.674,-1.6709,-1.6706,-1.671,-1.6707,-1.6704,-1.6702,-1.6691,-1.6712,-1.6715,-1.6735,-1.6696,-1.6767,-1.677,-1.6772,-1.6809,-1.6815,-1.6821,0,0,0,0,0,-1.6702,-1.6729,-1.6719,-1.6721,-1.6728,-1.6741,-1.6742,-1.6729,-1.6712,-1.6725,-1.6719,-1.6702,-1.6731,-1.6715,-1.6718,-1.6738,-1.6766,-1.6769,-1.6772,-1.6807,-1.6814,-1.6821,0,0,0,0,0,0,-1.6737,-1.6728,-1.6716,-1.6742,-1.6743,-1.6736,-1.6751,-1.6737,-1.6743,-1.6739,-1.6722,-1.6722,-1.6746,-1.6743,-1.6726,-1.677,-1.6746,-1.6749,-1.6771,-1.6778,-1.6783,-1.6784,-1.6696,0,0,0,0,0,-1.6748,-1.6759,-1.675,-1.6773,-1.6774,-1.6763,-1.6768,-1.6757,-1.6757,-1.6758,-1.6753,-1.6754,-1.6764,-1.677,-1.6778,-1.6808,-1.6808,-1.6823,-1.6829,-1.6834,-1.6838,-1.6855,-1.6862,-1.6784,-1.6784,-1.6784,0,0,-1.677,-1.6766,-1.6774,-1.678,-1.678,-1.6792,-1.6763,-1.6777,-1.6786,-1.676,-1.678,-1.6776,-1.6776,-1.6802,-1.6813,-1.6801,-1.6859,-1.6838,-1.6842,-1.6843,-1.6859,-1.6867,-1.6873,-1.6786,-1.6786,-1.6786,0,0,-1.6817,-1.6815,-1.6835,-1.6835,-1.6834,-1.6826,-1.6831,-1.6826,-1.6823,-1.6842,-1.6823,-1.6834,-1.685,-1.6852,-1.6854,-1.6903,-1.6888,-1.6905,-1.6936,-1.6953,-1.6959,-1.6965,-1.6984,-1.699,-1.6909,-1.6909,-1.6909,0,-1.6846,-1.6863,-1.6847,-1.6863,-1.6866,-1.6842,-1.6863,-1.6864,-1.6866,-1.6869,-1.6855,-1.6876,-1.6874,-1.6901,-1.6913,-1.6915,-1.6921,-1.6907,-1.696,-1.6965,-1.697,-1.6988,-1.6995,-1.6911,-1.6911,-1.6911,-1.6911,0,-1.6898,-1.6911,-1.6927,-1.693,-1.6935,-1.6953,-1.694,-1.6948,-1.6937,-1.6931,-1.6951,-1.6948,-1.6956,-1.6961,-1.695,-1.6986,-1.6979,-1.6962,-1.6938,-1.698,-1.6996,-1.7003,-1.6915,-1.6914,-1.6913,-1.6913,0,0,-1.6969,-1.6962,-1.6969,-1.697,-1.6968,-1.6977,-1.6994,-1.7002,-1.7009,-1.7011,-1.7026,-1.704,-1.7025,-1.7028,-1.7018,-1.7032,-1.7073,-1.7014,-1.7014,-1.7027,-1.7114,-1.7128,-1.7136,-1.7062,-1.7063,-1.7064,-1.7115,0,-1.7016,-1.7045,-1.7031,-1.7062,-1.7074,-1.7051,-1.7066,-1.7067,-1.7062,-1.7071,-1.7065,-1.7076,-1.7055,-1.7057,-1.707,-1.7065,-1.709,-1.7061,-1.7077,-1.7078,-1.708,-1.7144,-1.7159,-1.7206,-1.7121,-1.7122,-1.7123,0,-1.7075,-1.708,-1.7112,-1.7108,-1.7113,-1.7126,-1.7133,-1.7142,-1.7142,-1.7137,-1.7141,-1.7127,-1.7144,-1.7119,-1.7143,-1.7124,-1.7129,-1.7128,-1.7129,-1.7132,-1.7104,-1.715,-1.7221,-1.7229,-1.7132,-1.7131,-1.7131,0,-1.7125,-1.7139,-1.7161,-1.7163,-1.7158,-1.7169,-1.7168,-1.7167,-1.7172,-1.7177,-1.7181,-1.7188,-1.7193,-1.7199,-1.7187,-1.717,-1.7214,-1.7187,-1.7212,-1.7212,-1.7223,-1.7223,-1.7298,-1.7224,-1.7224,-1.7224,-1.7224,0,-1.718,-1.7201,-1.7184,-1.7197,-1.722,-1.7204,-1.7228,-1.7224,-1.7224,-1.7236,-1.7217,-1.7229,-1.7213,-1.7224,-1.7215,-1.7237,-1.7239,-1.7236,-1.7234,-1.7239,-1.724,-1.7244,-1.7241,-1.7226,-1.7225,-1.7225,-1.7225,0,-1.7241,-1.723,-1.7252,-1.7246,-1.7245,-1.7263,-1.7258,-1.7271,-1.7264,-1.728,-1.7283,-1.7273,-1.7285,-1.7273,-1.7285,-1.7279,-1.731,-1.7301,-1.731,-1.7308,-1.7334,-1.7332,-1.7416,-1.7427,-1.7344,-1.7345,-1.7345,0,-1.7278,-1.7294,-1.729,-1.7297,-1.7297,-1.7308,-1.7314,-1.7299,-1.7306,-1.7307,-1.732,-1.733,-1.7338,-1.7359,-1.7353,-1.7361,-1.7355,-1.7383,-1.7356,-1.7361,-1.7357,-1.7357,-1.736,-1.7389,-1.739,-1.7391,-1.7392,0,-1.7346,-1.7339,-1.7348,-1.7355,-1.7363,-1.7367,-1.7371,-1.7378,-1.7362,-1.7371,-1.7383,-1.7389,-1.7401,-1.7412,-1.7419,-1.7418,-1.7403,-1.74,-1.7407,-1.7413,-1.7418,-1.7418,-1.7327,-1.7399,-1.7398,-1.7397,-1.7397,-1.7397,-1.7397,-1.741,-1.741,-1.7421,-1.7421,-1.7425,-1.7437,-1.7431,-1.7441,-1.745,-1.744,-1.7455,-1.7456,-1.7464,-1.7465,-1.7477,-1.7465,-1.7474,-1.7477,-1.748,-1.7484,-1.7414,-1.7478,-1.7478,-1.7477,-1.7477,-1.7477,0,-1.7465,-1.7463,-1.7473,-1.7479,-1.7487,-1.7471,-1.7474,-1.7483,-1.7497,-1.7498,-1.7506,-1.7521,-1.7532,-1.7526,-1.7535,-1.7546,-1.754,-1.755,-1.755,-1.755,-1.7493,-1.7488,-1.7555,-1.7555,-1.7555,-1.7555,-1.7555,-1.7555,-1.7502,-1.7524,-1.7518,-1.7541,-1.7539,-1.7554,-1.7557,-1.7561,-1.7562,-1.7579,-1.7588,-1.7584,-1.7583,-1.7592,-1.7602,-1.76,-1.7605,-1.7618,-1.7614,-1.7561,-1.7554,-1.7547,-1.7541,-1.7619,-1.7619,-1.767,-1.7671,-1.7671]},{"header":{"parameterUnit":"m.s-1","parameterCategory":1,"la1":30.2991,"la2":30.254,"lo1":-89.0895,"lo2":-89.0444,"dy":0.0017,"dx":0.0017,"nx":28,"ny":28,"refTime":"2026-02-07T09:00:00:Z","depth":0,"parameterNumber":3,"parameterNumberName":"V-component_of_WINDS"},"data":[0,0,0,0,0,0,0,0,0,0,0,0,0,0,0,0,0,0,0,0,0,0,0,0,0,0,0,0,0,0,0,0,0,0,0,0,0,0,0,0,0,0,0,0,0,0,0,0,0,0,0,0,0,0,0,0,0,0,-4.0334,-4.0335,0,-4.0387,-4.0388,-4.0389,-4.038,-4.0379,-4.0378,-4.0377,-4.0427,-4.0429,-4.0431,0,0,0,0,0,0,0,0,0,0,0,0,0,-4.0222,-4.0224,-4.0334,-4.0335,-4.0336,-4.0387,-4.0388,-4.0389,-4.038,-4.0379,-4.0378,-4.0377,-4.0426,-4.0429,-4.0431,0,0,0,0,0,0,0,0,0,0,0,0,0,-4.0272,-4.0225,-4.0334,-4.0338,-4.0338,-4.0387,-4.0388,-4.0389,-4.038,-4.0379,-4.0377,-4.0376,-4.0425,-4.0428,-4.0432,-4.0479,0,0,-4.0442,-4.0443,0,0,0,0,0,0,0,0,-4.027,-4.0276,-4.0336,-4.0337,-4.0338,-4.0376,-4.0367,-4.0419,-4.038,-4.0364,-4.0377,-4.0375,-4.0411,-4.0415,-4.0428,-4.0481,-4.0483,-4.0442,-4.0444,-4.0445,-4.0446,0,0,0,0,0,0,0,-4.0266,-4.0274,-4.0355,-4.0337,-4.0339,-4.0335,-4.0341,-4.0377,-4.0394,-4.0365,-4.0365,-4.0372,-4.0411,-4.0425,-4.0429,-4.0484,-4.0442,-4.0445,-4.0447,-4.0448,-4.0581,-4.0582,0,0,0,0,0,0,-4.0262,-4.0271,-4.0353,-4.0357,-4.03,-4.0338,-4.0345,-4.0365,-4.0394,-4.0397,-4.0373,-4.0371,-4.042,-4.0425,-4.0431,-4.0489,-4.0445,-4.0448,-4.045,-4.0579,-4.0581,-4.0583,0,0,0,0,0,0,-4.026,-4.027,-4.0351,-4.0314,-4.0324,-4.0342,-4.0365,-4.0367,-4.0381,-4.0399,-4.0402,-4.0384,-4.0419,-4.0426,-4.0468,-4.0491,-4.045,-4.0453,-4.0577,-4.058,-4.0582,-4.0606,0,0,0,0,0,0,-4.0257,-4.0269,-4.0288,-4.0315,-4.0326,-4.0389,-4.0366,-4.0369,-4.0387,-4.0385,-4.0411,-4.0413,-4.0418,-4.0463,-4.0471,-4.0495,-4.0455,-4.0575,-4.0578,-4.0581,-4.0603,-4.0609,-4.0614,0,0,0,0,0,-4.0253,-4.0291,-4.0289,-4.0299,-4.035,-4.039,-4.0397,-4.0403,-4.0389,-4.0407,-4.042,-4.0413,-4.0487,-4.0467,-4.0476,-4.0501,-4.0574,-4.0578,-4.0581,-4.0601,-4.0608,-4.0614,0,0,0,0,0,0,-4.0264,-4.0295,-4.0292,-4.0341,-4.0363,-4.0389,-4.0412,-4.041,-4.0435,-4.0432,-4.0438,-4.0443,-4.0486,-4.0497,-4.0475,-4.0549,-4.0528,-4.0534,-4.054,-4.0547,-4.0552,-4.0549,-4.0458,0,0,0,0,0,-4.0273,-4.0304,-4.0328,-4.0368,-4.038,-4.0394,-4.0412,-4.0415,-4.0438,-4.0447,-4.0462,-4.0483,-4.0511,-4.053,-4.0556,-4.0605,-4.0611,-4.0626,-4.0632,-4.0636,-4.0641,-4.0668,-4.0676,-4.0594,-4.0594,-4.0594,0,0,-4.029,-4.0311,-4.0329,-4.0371,-4.0389,-4.042,-4.0402,-4.0435,-4.0459,-4.0451,-4.0492,-4.0504,-4.0528,-4.0574,-4.0595,-4.0585,-4.0665,-4.064,-4.0644,-4.0646,-4.0673,-4.068,-4.0687,-4.0597,-4.0596,-4.0596,0,0,-4.0338,-4.0357,-4.0393,-4.0412,-4.044,-4.0449,-4.0458,-4.0484,-4.0493,-4.0535,-4.053,-4.0557,-4.0605,-4.0623,-4.0638,-4.0695,-4.0689,-4.0703,-4.0731,-4.0757,-4.0764,-4.077,-4.0791,-4.0798,-4.0708,-4.0708,-4.0708,0,-4.0356,-4.0404,-4.0412,-4.0447,-4.0465,-4.0462,-4.0499,-4.0516,-4.055,-4.0563,-4.0552,-4.0614,-4.0629,-4.068,-4.0694,-4.0706,-4.0716,-4.07,-4.0763,-4.0768,-4.0774,-4.0794,-4.0802,-4.0709,-4.0709,-4.0709,-4.0709,0,-4.0425,-4.0459,-4.0485,-4.0521,-4.0542,-4.0578,-4.059,-4.061,-4.0612,-4.0623,-4.0665,-4.0684,-4.0716,-4.0728,-4.0728,-4.0779,-4.0772,-4.0761,-4.0741,-4.0783,-4.0802,-4.081,-4.0711,-4.0711,-4.071,-4.071,0,0,-4.0482,-4.0523,-4.0532,-4.055,-4.0581,-4.0606,-4.0641,-4.0674,-4.0692,-4.0716,-4.0746,-4.0787,-4.0779,-4.0796,-4.0799,-4.0822,-4.0867,-4.0809,-4.081,-4.082,-4.0925,-4.0933,-4.0942,-4.0864,-4.0865,-4.0866,-4.0923,0,-4.0534,-4.0598,-4.0607,-4.0663,-4.0695,-4.0693,-4.0723,-4.0745,-4.0756,-4.0783,-4.0795,-4.0825,-4.081,-4.0821,-4.0844,-4.0857,-4.0888,-4.0853,-4.0891,-4.0892,-4.0886,-4.0952,-4.0961,-4.1014,-4.0931,-4.0932,-4.0933,0,-4.0603,-4.0631,-4.0692,-4.0721,-4.0734,-4.0762,-4.0793,-4.0819,-4.0844,-4.085,-4.0871,-4.0871,-4.0907,-4.0885,-4.0934,-4.091,-4.0926,-4.0934,-4.0937,-4.0941,-4.0916,-4.0959,-4.103,-4.1039,-4.0944,-4.0944,-4.0943,0,-4.064,-4.0693,-4.0737,-4.0751,-4.0785,-4.0804,-4.0819,-4.0843,-4.0862,-4.0889,-4.0902,-4.0932,-4.0948,-4.0971,-4.0979,-4.0962,-4.1028,-4.1006,-4.1035,-4.1035,-4.1049,-4.1048,-4.1125,-4.1058,-4.1058,-4.1058,-4.1058,0,-4.0697,-4.0735,-4.0754,-4.0781,-4.0823,-4.0831,-4.0872,-4.0886,-4.0907,-4.0936,-4.0935,-4.0962,-4.097,-4.0998,-4.1005,-4.1045,-4.1052,-4.1058,-4.106,-4.1059,-4.1059,-4.107,-4.1067,-4.106,-4.1059,-4.1059,-4.1059,0,-4.0745,-4.076,-4.0808,-4.0837,-4.0845,-4.0874,-4.0899,-4.0924,-4.0935,-4.0972,-4.0981,-4.0998,-4.1031,-4.1041,-4.108,-4.1085,-4.1133,-4.113,-4.1125,-4.1126,-4.1154,-4.1152,-4.1242,-4.1254,-4.1178,-4.1179,-4.1179,0,-4.0782,-4.0811,-4.0844,-4.0864,-4.0881,-4.0913,-4.0934,-4.0943,-4.0965,-4.0996,-4.1018,-4.1051,-4.1079,-4.1132,-4.1147,-4.1177,-4.1176,-4.1205,-4.118,-4.1179,-4.1178,-4.1176,-4.118,-4.121,-4.1211,-4.1212,-4.1212,0,-4.0845,-4.0851,-4.0882,-4.0916,-4.0942,-4.0968,-4.0993,-4.101,-4.1023,-4.1047,-4.1082,-4.1104,-4.1145,-4.1178,-4.121,-4.1223,-4.122,-4.122,-4.1228,-4.1229,-4.1225,-4.1229,-4.1139,-4.1218,-4.1217,-4.1217,-4.1217,-4.1216,-4.0889,-4.0916,-4.0944,-4.0979,-4.0999,-4.1024,-4.105,-4.1065,-4.1095,-4.1131,-4.1135,-4.1173,-4.1197,-4.1239,-4.1255,-4.1284,-4.1276,-4.1287,-4.1291,-4.1294,-4.1297,-4.122,-4.129,-4.129,-4.1289,-4.1289,-4.1289,0,-4.0954,-4.0972,-4.1004,-4.1041,-4.1069,-4.1065,-4.1093,-4.1116,-4.115,-4.1174,-4.1202,-4.1243,-4.1276,-4.1294,-4.1326,-4.1346,-4.1346,-4.1354,-4.1353,-4.1357,-4.1302,-4.1292,-4.1355,-4.1355,-4.1355,-4.1355,-4.1354,-4.1354,-4.099,-4.1036,-4.1045,-4.1101,-4.1118,-4.1158,-4.1174,-4.1197,-4.1216,-4.1263,-4.1291,-4.1303,-4.1325,-4.1359,-4.1389,-4.1393,-4.1405,-4.1415,-4.1419,-4.1367,-4.1361,-4.1354,-4.1345,-4.1418,-4.1418,-4.1472,-4.1472,-4.1473]}]]